{"data":{"norad_id":39075,"epoch":"2026-09-20T00:17:07.645920Z","epoch_age_seconds":56836,"freshness":"FRESH","line1":"1 39075U 13005D   26263.01189405 -.00000086  00000+0  10167-3 0  9992","line2":"2 39075  52.0063 270.9627 0000438 109.2303 250.8611 12.62264556629366","mean_motion":12.62264556,"eccentricity":4.38e-5,"inclination_deg":52.0063,"raan_deg":270.9627,"arg_perigee_deg":109.2303,"mean_anomaly_deg":250.8611,"bstar":0.00010167,"rev_number":62936,"period_min":114.08068088066,"perigee_km":1413.270046465,"apogee_km":1413.9526036182,"semimajor_km":7791.7483250416,"source":"CELESTRAK","updated_at":"2026-09-20T09:00:45.041413Z"}}